GFSGL_con_sbcape_135.txt.gz
CAPE
592 790 921 920 861 860 955 1128 1140 1197 1306 1446 1597 1772 1806 1675 937 1147 1339 1028 1091 959 1042 1004 1170 1238 1190 1196 862 800 645 501 773 766 238 88 65 69 37 83 153 55 0
350 433 545 571 514 429 456 357 396 488 638 987 1338 1471 1480 1749 1621 931 1190 1642 1426 1372 1282 1196 1041 1176 1304 1257 1216 1092 1013 763 687 784 633 157 91 100 62 84 63 110 87
119 393 571 425 233 184 107 119 180 279 359 469 718 899 1081 1225 1272 1040 1111 1365 1470 1508 1481 1356 1393 1251 1395 1547 1530 1466 1402 1067 607 543 737 178 144 131 134 62 58 55 109
129 428 425 322 198 133 117 176 251 269 295 371 475 598 762 881 1095 1115 1098 986 1062 1236 1274 1444 1542 1571 1499 1556 1636 1613 1516 1286 991 573 528 547 241 141 123 159 116 36 79
9 224 296 176 145 92 163 239 303 316 371 374 493 629 702 749 785 751 904 961 1124 1221 1354 1296 1323 1474 1405 1378 1226 988 1208 1215 1065 826 640 581 634 304 221 97 98 72 63
0 42 102 121 89 97 125 164 200 230 265 284 426 608 680 697 790 705 530 752 958 1136 965 1192 737 541 252 55 210 292 639 797 824 812 757 691 722 576 112 153 122 98 162
55 136 206 165 83 100 51 0 0 10 37 132 323 493 489 558 659 415 276 383 706 993 961 757 727 568 227 200 3 16 22 79 60 135 176 360 637 690 253 66 71 51 74
0 33 89 100 89 9 0 0 0 0 0 8 100 261 342 433 483 289 83 105 338 595 976 719 533 506 126 2 16 0 0 4 0 16 137 288 642 667 274 275 156 40 1
7 59 73 53 2 0 0 0 0 0 0 0 5 44 173 353 400 128 1 49 156 260 640 796 583 332 104 0 0 0 0 0 47 144 216 367 591 544 190 39 66 87 74
0 5 4 0 0 0 0 0 0 0 0 3 47 218 176 292 307 151 1 11 250 216 236 387 238 199 89 0 6 23 8 0 0 19 12 4 30 61 0 115 139 116 57
0 0 0 0 0 0 0 0 0 0 14 66 77 15 49 156 63 2 1 0 120 218 222 231 79 0 1 1 0 0 0 0 0 27 98 321 355 192 10 21 79 157 26
10 0 0 0 0 0 0 0 0 3 23 36 44 21 28 87 23 1 1 1 0 4 119 217 140 163 2 1 1 0 0 0 4 27 10 100 110 246 174 111 68 16 31
1 0 0 0 0 0 0 0 0 29 0 6 50 56 1 0 0 0 0 0 1 0 2 2 1 1 2 2 1 0 1 0 0 57 2 24 81 306 166 25 1 0 0
0 0 0 0 0 0 0 0 2 6 15 13 1 0 0 0 0 0 0 0 1 1 0 0 0 0 1 0 1 0 0 0 0 36 48 1 50 53 71 61 3 1 0
0 0 0 0 0 0 0 0 1 21 15 2 0 0 0 0 0 0 1 0 1 0 1 1 1 1 1 1 1 1 1 22 22 53 60 135 88 79 84 15 0 0 0
0 0 0 0 0 0 0 0 5 19 1 1 1 1 0 0 0 0 1 1 1 2 1 1 1 1 1 1 1 1 1 2 17 16 62 71 75 45 15 1 0 0 0
1 2 0 0 0 1 5 1 7 36 0 1 1 1 1 1 0 1 1 1 1 0 3 7 1 1 1 1 1 0 1 1 1 22 41 31 18 1 0 1 1 0 0
13 9 0 0 24 36 12 5 12 21 27 4 0 1 1 0 0 1 0 0 0 0 0 2 0 0 0 0 0 0 1 0 0 0 3 1 1 0 1 1 0 0 0
22 25 21 11 12 30 30 22 13 1 3 0 0 0 1 0 1 0 0 0 4 3 0 0 0 0 0 0 0 0 0 0 0 0 0 0 0 0 1 1 1 0 0
25 46 42 34 27 27 29 22 13 3 0 5 1 0 0 0 0 0 0 1 31 3 0 0 0 0 0 0 0 0 0 0 0 0 0 0 0 0 0 0 0 0 0
9 8 5 3 6 41 11 18 9 0 0 0 8 2 0 0 0 0 12 9 30 3 0 0 0 0 0 0 0 0 0 0 0 0 0 0 0 0 0 0 0 0 0
9 0 0 1 0 0 0 0 0 0 0 35 77 31 0 0 0 0 10 18 0 4 5 4 3 0 0 0 0 0 0 0 0 0 0 0 0 0 0 0 0 0 0
0 0 0 0 0 1 0 0 0 0 0 0 3 18 0 0 0 0 5 7 4 0 0 3 12 39 6 1 13 10 5 7 4 0 2 1 0 0 0 0 0 0 0
0 0 0 0 0 0 0 0 0 0 0 0 0 0 0 0 0 0 0 0 11 0 0 0 1 23 13 20 17 30 39 36 11 1 18 13 0 0 0 0 0 0 0
4 3 0 0 0 0 1 0 0 0 0 0 0 0 0 0 0 0 0 0 0 0 0 0 0 0 0 8 16 7 2 9 12 1 0 9 0 0 0 0 0 0 0
6 8 6 4 2 3 0 2 3 3 0 0 0 0 0 0 0 0 1 0 0 3 0 0 1 0 0 0 0 0 0 0 0 0 0 0 0 0 0 0 0 0 0

GFSGL_con_sbcape_138.txt.gz
CAPE
228 382 559 620 579 601 698 731 808 744 664 699 834 1192 1478 1731 1599 1442 1497 1464 1204 1046 1045 1012 1064 1189 1249 1315 1295 1233 1155 1051 959 925 1298 1276 564 116 87 458 304 350 314
289 305 199 180 204 228 188 191 153 118 173 317 463 616 947 1397 1721 1514 1348 1680 1297 1436 1460 1420 1322 1220 1080 1257 1478 1206 1191 1176 859 750 886 1097 246 122 356 180 170 236 193
13 5 20 114 166 163 105 77 9 17 94 211 324 421 576 753 997 1387 1421 1359 1513 1687 1564 1578 1601 1540 1191 1223 1307 1253 1295 1266 1102 929 931 853 825 118 139 100 430 420 291
0 0 0 23 73 58 21 23 27 109 207 278 309 379 469 583 756 899 1041 1179 1220 1388 1573 1549 1641 1658 1639 1498 1301 1237 1270 1339 1324 1055 926 676 573 375 368 669 607 301 444
0 0 0 0 0 15 51 67 97 168 257 299 346 385 440 563 715 866 1027 1178 1150 1091 1116 1164 1249 1434 1369 1442 1441 1409 1364 1223 1406 1139 878 587 554 484 486 419 600 471 289
0 0 0 0 6 62 99 100 124 180 156 129 129 175 300 482 553 548 519 949 960 1010 936 944 1034 967 802 612 578 920 1343 1254 1100 990 749 747 737 856 683 482 537 602 817
0 0 0 0 4 79 105 93 42 0 3 0 0 15 59 215 268 207 111 495 690 602 632 760 865 769 662 961 603 218 277 550 979 1161 978 1012 999 956 811 513 444 608 707
0 0 0 0 16 93 70 4 0 0 0 0 0 0 0 54 57 28 5 146 273 307 428 426 565 1086 808 690 680 449 154 165 199 345 398 657 662 835 971 863 657 522 402
0 0 10 29 60 119 39 0 0 0 0 0 0 0 20 103 106 43 1 6 102 129 245 339 632 850 790 435 416 317 203 103 44 4 23 43 34 194 606 598 331 341 435
27 20 46 52 64 41 2 0 0 0 0 0 0 89 179 232 201 239 1 1 17 181 281 241 290 430 602 347 155 164 56 33 20 57 2 0 0 18 4 534 513 340 186
0 9 61 63 4 0 0 0 0 0 0 0 15 168 230 62 75 121 1 3 2 17 310 370 499 482 216 2 1 98 58 155 41 81 110 108 79 66 81 125 480 366 96
0 21 39 23 31 32 0 0 0 0 0 1 0 30 81 36 44 12 0 0 0 1 1 40 307 351 111 2 1 0 1 7 15 11 80 98 182 228 237 115 239 289 248
13 8 0 0 1 0 0 0 0 0 7 2 0 12 34 85 13 0 0 0 0 1 1 0 1 1 2 1 1 1 1 0 0 2 4 30 62 50 409 222 225 378 204
26 29 0 0 0 0 0 1 1 2 18 2 10 5 0 0 0 0 1 1 0 1 4 1 0 1 1 1 1 0 1 3 1 2 5 13 0 23 133 195 132 71 28
5 0 0 0 0 0 0 1 1 0 2 3 23 6 0 0 0 0 0 1 0 0 1 4 1 1 1 1 1 2 5 5 4 7 13 5 0 3 100 212 160 10 24
0 1 1 1 3 2 1 7 10 0 0 0 0 1 0 0 0 1 0 1 1 0 0 5 6 1 1 1 1 1 1 8 20 24 37 13 1 1 72 18 25 7 1
3 6 2 0 8 14 36 24 15 1 3 8 24 1 1 0 1 1 1 1 0 0 73 19 11 2 2 2 1 2 3 1 1 15 51 23 17 14 10 2 0 0 0
0 0 3 10 36 34 47 36 28 9 22 36 3 0 1 1 1 1 0 0 27 7 31 8 1 1 1 1 1 1 1 2 2 1 1 1 1 1 0 3 2 2 2
18 23 28 30 29 31 19 40 51 29 20 3 5 1 1 1 1 1 1 0 14 8 0 0 0 0 0 0 0 1 0 0 1 1 1 1 2 1 1 1 1 0 0
8 7 1 1 5 21 27 50 37 20 10 10 0 27 0 0 0 0 13 15 44 9 0 0 0 0 0 0 0 0 0 0 0 0 0 1 1 1 2 2 2 1 1
17 3 0 0 0 2 30 26 32 13 0 0 0 1 1 2 0 4 17 39 67 17 11 4 0 0 0 0 0 0 0 0 0 0 0 0 0 0 0 0 0 0 0
11 5 0 0 0 1 1 0 5 0 0 0 2 0 0 6 10 1 3 21 10 21 19 15 31 34 24 19 19 20 17 14 8 0 0 0 0 0 0 0 0 0 0
6 2 0 1 2 2 2 4 3 0 0 0 1 4 5 3 0 0 0 0 35 1 2 7 12 56 39 72 68 54 61 51 36 23 8 0 0 0 0 0 0 0 0
6 6 5 4 3 1 3 5 5 1 0 0 0 4 5 3 1 0 0 3 2 2 1 0 0 0 2 26 53 31 52 62 47 83 89 68 44 8 22 14 10 0 0
3 4 6 6 6 5 2 3 5 8 7 2 0 0 4 2 0 1 3 5 1 5 4 5 0 0 0 0 0 0 0 0 0 0 24 69 38 23 32 27 8 10 6
0 4 7 4 5 7 5 5 7 9 5 4 3 2 0 3 1 0 2 2 4 5 0 1 6 2 2 2 1 0 0 0 0 0 0 16 21 0 0 0 0 0 0

GFSGL_con_sbcape_141.txt.gz
CAPE
1965 1909 1914 1764 1616 1467 1468 1467 1504 1588 1481 1311 981 722 679 779 987 1814 1976 2266 2408 2409 2332 1858 1458 1987 1510 1839 2479 2276 2039 2148 2105 1595 1785 1970 2177 2065 1890 1618 548 1272 1263
1396 1335 875 783 766 727 796 782 996 1000 975 1011 781 716 817 836 972 1148 1287 1639 1706 1742 1919 2024 1529 1477 1455 2329 2199 2279 1908 2407 1949 1620 1582 1864 2179 2040 2035 1471 882 999 1300
260 189 336 498 518 506 433 356 372 435 415 726 765 807 792 796 822 944 1075 1254 1425 1601 1691 1874 2136 1952 2058 1707 1827 1822 2146 1949 1995 1447 1317 1637 1625 1641 1847 1512 781 482 678
135 316 441 436 350 179 155 335 380 467 504 817 798 817 903 957 912 885 939 1042 1235 1363 1716 1701 1782 2048 2142 2384 2163 1818 1883 1954 1647 1239 1179 1520 1656 1795 1617 1350 1403 995 1261
227 346 528 499 333 197 185 304 400 528 697 899 847 928 855 663 469 535 632 764 1264 1184 1545 1272 1418 1431 1128 1377 2089 2166 2276 1979 1599 1330 1274 1281 1351 1119 1107 1070 1373 1113 1766
310 496 576 400 264 239 314 471 639 683 825 1029 977 656 482 225 79 75 221 313 584 879 957 1239 1269 962 879 617 598 674 1185 1774 1369 1329 1271 1138 1369 1042 1649 1265 1507 919 1367
508 619 509 390 290 321 351 498 712 856 1073 824 648 374 213 322 152 6 0 232 484 624 786 976 743 1103 869 1090 842 260 259 234 423 1332 1188 1414 1174 1813 1664 1548 1721 1441 1324
499 607 535 532 295 337 561 787 921 992 906 548 338 213 221 307 103 1 0 48 283 385 516 584 705 840 709 1074 1190 1253 1092 892 974 503 753 1724 1761 2450 2429 2179 2423 2251 1355
439 590 593 370 314 588 773 850 1039 776 373 181 135 186 290 500 296 133 1 462 298 362 479 446 471 592 411 338 1023 1047 1169 1164 566 432 346 684 644 470 1063 1167 1202 1079 634
215 546 485 436 662 809 897 762 601 513 342 212 215 275 373 590 328 106 0 339 207 16 40 228 124 168 342 231 943 1149 1116 1090 1008 958 493 22 3 5 54 384 833 567 612
348 457 415 672 818 773 599 541 514 494 429 290 300 457 656 582 667 46 5 41 39 2 8 33 279 283 0 1 1 634 930 985 777 553 366 204 216 353 292 302 543 409 583
347 365 534 722 705 358 442 386 344 337 327 264 479 442 1016 683 94 83 0 0 0 5 7 14 12 4 2 1 1 0 16 68 445 254 112 98 188 427 592 623 573 983 916
167 324 525 726 635 478 308 242 224 236 379 316 274 302 159 32 91 26 0 0 0 4 6 1 1 1 1 1 1 1 1 1 18 154 78 196 211 222 549 997 681 658 1117
220 306 400 546 470 314 154 136 199 326 513 147 574 325 49 57 206 135 26 2 0 0 0 4 1 2 1 2 1 2 4 4 3 4 35 107 178 128 201 291 758 300 356
23 65 25 198 159 183 160 87 103 114 71 181 224 23 40 123 120 2 0 0 2 2 4 1 16 4 4 22 34 5 0 3 4 3 4 6 132 167 67 685 724 439 175
1 3 45 98 89 51 44 16 4 2 0 0 2 1 8 0 0 0 0 0 0 0 3 92 108 15 10 9 68 5 3 5 5 52 92 234 55 9 12 150 344 76 102
21 65 145 81 198 21 12 11 51 10 1 1 15 10 0 1 1 1 0 0 0 0 360 290 224 18 4 4 4 4 3 6 11 147 84 181 72 3 6 14 40 48 34
9 11 83 121 159 32 152 45 70 70 83 60 53 1 0 0 0 0 0 1 52 53 47 99 157 121 14 5 2 4 3 5 8 5 10 9 89 19 31 5 0 2 1
7 43 66 74 61 20 90 121 144 78 76 44 18 25 26 0 0 0 0 61 199 82 47 23 17 0 33 22 1 0 2 1 4 4 3 6 3 2 2 14 8 3 1
13 15 6 22 18 28 54 72 232 56 55 23 3 46 10 3 98 99 175 569 326 134 120 54 38 10 0 38 33 0 0 0 0 0 1 3 3 3 3 3 2 2 2
22 5 1 10 8 14 18 29 112 114 11 6 18 13 2 1 94 5 189 290 370 265 189 225 115 93 60 66 102 91 103 135 49 16 53 12 0 0 0 1 1 1 1
11 6 3 4 10 12 5 8 6 3 7 2 4 4 0 37 63 73 126 134 177 75 164 134 215 224 181 153 139 75 54 45 37 58 51 23 21 0 0 0 7 1 0
6 7 4 6 6 4 6 6 3 5 7 3 4 10 5 6 6 6 8 22 15 4 0 19 12 24 142 198 380 370 184 148 147 105 60 43 35 31 25 10 0 0 0
5 6 8 8 8 6 5 10 5 0 3 5 6 3 6 3 2 5 7 10 7 11 13 4 1 0 0 0 0 0 0 0 61 124 193 86 60 45 49 53 49 44 17
0 1 1 9 10 11 7 12 9 8 6 6 7 9 6 0 0 0 4 7 15 14 9 8 4 5 6 7 5 1 0 0 0 0 177 154 147 101 78 58 59 59 60
0 0 1 3 1 4 7 8 9 8 9 8 10 10 8 6 1 0 1 1 3 4 2 3 5 0 0 0 0 0 0 0 0 0 22 166 127 66 26 11 15 6 17

GFSGL_con_sbcape_144.txt.gz
CAPE
3565 2992 2918 2373 1693 840 455 378 443 527 641 607 941 1122 692 840 963 1402 1558 1204 1366 1896 2078 2164 2342 2831 1762 1261 1271 1205 740 1258 2192 1406 1617 1843 3252 2425 2229 2175 1877 2142 1646
2546 2388 1811 966 395 166 260 292 323 290 229 177 397 777 740 865 1138 1026 917 651 748 1163 1112 1811 1590 1939 2355 2596 1932 2320 2791 2993 2623 2499 2237 1797 2719 3449 2710 2739 2660 1895 1514
1694 865 474 333 273 294 422 440 298 226 164 116 180 404 684 895 976 1025 1008 799 893 912 1372 1364 1290 1679 2134 2073 2353 1983 1787 2412 2573 2464 1649 2186 1918 1935 2643 2852 2941 2471 1778
447 353 499 483 473 567 587 493 374 335 285 277 365 560 821 915 925 923 1090 1194 953 910 1133 1125 1153 1300 1716 1928 2107 2264 2306 2260 2431 2562 2545 2569 1751 2092 2377 2215 1984 2239 2012
600 617 719 839 1057 976 862 721 578 533 418 502 643 730 897 897 743 831 740 680 688 523 965 926 1284 1282 966 1045 1767 1903 2194 2278 2303 2489 2192 2144 1677 1862 1962 2450 1944 1978 2068
801 822 894 1052 1237 1171 1020 823 676 618 652 780 813 1037 1026 910 489 43 56 320 462 669 721 844 1003 849 765 660 572 467 1034 1868 2183 2198 1902 2125 1932 1535 1711 1570 1882 1784 1533
723 825 955 1147 1235 1118 948 756 671 820 958 1019 1395 1172 1008 937 350 114 3 534 680 676 799 1115 927 785 653 841 763 300 314 311 202 1525 2050 1958 2363 2104 2299 1829 1871 2861 1882
476 522 616 821 896 920 808 725 806 772 963 1184 1160 1108 952 797 344 155 12 734 825 833 822 942 942 897 670 731 1060 1214 1115 1418 1238 775 1330 1931 2093 2599 2594 2746 2509 2992 3179
7 19 108 290 623 739 705 721 811 897 1054 1217 1042 917 876 919 549 242 43 693 720 679 593 459 218 248 472 138 352 793 1101 1076 867 543 644 779 1100 878 1108 1947 1459 1824 2517
283 318 410 526 612 590 606 857 796 872 1070 879 999 1080 778 916 602 159 0 627 313 75 24 179 0 0 0 0 85 357 449 807 1084 1524 1267 451 114 628 102 1217 973 2008 2437
313 416 489 498 564 610 847 804 958 891 748 909 839 1207 1172 948 1094 199 1 298 58 20 14 11 0 0 0 0 1 32 249 755 965 1568 1811 1594 1698 1482 1259 975 1119 1145 1333
138 201 283 369 508 642 927 841 836 921 807 843 1011 1400 1237 1476 450 106 18 0 1 0 14 36 21 0 0 0 0 0 1 0 133 841 1629 1302 1131 1104 1019 1105 1027 936 743
211 224 296 502 520 571 763 807 826 690 532 394 684 722 828 983 797 42 13 0 0 2 96 22 0 0 0 0 0 0 1 1 13 262 536 655 910 1094 1156 932 1243 1393 1089
13 239 270 239 274 767 897 848 467 53 28 121 366 630 835 362 172 163 226 198 53 17 34 5 0 0 0 0 0 2 3 4 6 111 273 563 752 872 679 591 763 947 1638
6 21 32 88 471 342 431 104 62 29 42 78 206 105 82 24 20 5 0 0 20 0 0 0 80 121 74 41 13 5 16 32 11 58 351 321 435 453 390 579 723 612 749
11 23 141 296 250 161 179 229 54 1 0 0 0 1 1 0 0 0 1 1 0 0 0 45 382 313 129 27 11 13 396 1 3 3 88 307 194 168 266 623 713 1051 615
11 8 20 99 647 399 253 420 600 178 6 0 0 0 2 1 0 1 1 0 0 0 0 194 473 364 96 51 21 19 25 75 2 6 8 212 704 1203 800 740 418 602 931
7 1 63 380 91 93 124 138 136 177 37 61 28 5 0 0 0 0 0 0 89 17 98 125 253 208 245 132 21 62 2 9 10 14 33 99 324 432 282 186 256 43 30
11 40 23 15 118 22 120 577 89 185 32 40 43 24 1 0 1 1 1 57 224 103 121 120 198 228 225 283 184 54 35 30 15 13 8 11 41 14 78 135 284 13 0
12 4 1 16 9 10 9 44 137 64 4 17 31 3 1 2 148 237 716 757 285 311 203 179 173 193 344 288 319 240 80 53 76 39 3 3 4 6 6 6 2 2 3
12 5 2 1 5 8 9 0 8 6 8 10 7 6 0 3 15 0 239 682 422 31 378 375 248 232 287 325 333 262 216 245 131 125 80 8 3 4 3 3 3 2 2
18 8 7 3 5 9 5 12 2 2 11 5 17 10 0 6 8 10 7 7 13 26 2 32 24 257 279 286 232 373 175 180 204 77 83 78 66 26 5 16 0 2 0
4 7 8 9 12 6 7 7 7 11 10 4 7 12 8 10 6 7 11 12 9 6 0 1 0 0 0 0 0 0 0 0 0 200 99 59 53 56 61 38 17 7 1
0 0 2 4 6 7 12 8 10 8 8 7 4 7 8 5 7 6 5 10 3 4 6 2 2 2 1 0 0 0 0 0 0 10 160 108 73 73 77 54 45 51 23
0 0 0 0 0 1 2 3 4 5 10 8 5 6 5 3 2 1 1 1 3 5 6 5 2 0 0 0 0 0 0 0 0 0 0 130 74 78 41 51 44 59 43
0 0 0 0 0 0 0 1 0 0 2 4 4 3 5 7 2 0 0 0 1 0 1 0 0 0 0 0 0 0 0 0 0 0 0 107 93 105 42 60 46 44 27

GFSGL_con_sbcape_147.txt.gz
CAPE
3473 3804 4377 3785 3388 3109 1873 893 707 663 675 735 1136 1247 1151 1195 1396 1818 2071 2087 1589 1784 1690 1619 1458 1565 1251 1372 1284 1085 1384 1461 1054 1371 1046 1492 3038 2993 3273 2962 1861 2728 1769
4237 3646 3279 3000 2399 1167 805 665 534 621 566 711 1029 1129 1225 1218 1485 1740 1867 1472 1608 1516 1519 1440 1518 1258 1769 1823 1405 1707 1472 1827 1875 2151 2011 1838 2158 2567 3227 3112 2346 2026 2524
3113 2885 2367 1614 993 766 577 673 847 847 744 530 1060 1341 1324 1344 1497 1638 1352 1634 1566 1484 1341 897 951 1338 1469 1513 1537 1542 1580 1657 1764 1965 1562 1629 1922 2526 2876 3207 3115 3014 2760
2113 1319 1098 926 716 642 1058 1259 1309 1498 1290 1343 1308 1437 1452 1469 1362 1526 1651 1563 1530 968 1114 1194 996 1138 1357 1585 1613 1789 1861 1796 1689 1548 1494 1266 1310 1902 2881 2627 1799 2188 2207
1068 971 996 1129 1331 1389 1714 1977 2069 2069 1474 1485 1519 1405 1364 1125 586 1127 899 1005 1219 960 894 801 895 925 695 732 1175 1349 1486 1510 1613 1216 1111 1022 1096 1549 1786 1995 2104 1864 2263
1089 1086 1197 1372 1802 2247 2495 2526 2667 2240 1859 1804 1594 1387 1287 630 460 482 350 909 889 835 908 997 1066 854 796 534 347 395 691 1155 1276 1378 1169 1097 1412 1202 1554 1771 2236 2160 2074
811 871 910 1449 1518 2112 2366 2306 2019 1813 1709 1617 1414 1345 1264 1204 726 533 212 725 767 792 1092 1214 910 673 701 816 835 553 251 166 301 1229 1255 1365 1409 1619 1779 2196 2165 2207 2027
220 161 289 748 859 1387 1775 1850 1787 1343 1494 1387 1270 1268 1301 1116 556 129 53 702 1098 1206 1309 1270 1108 1179 1142 651 632 851 1055 1129 1157 874 1159 1363 1546 1675 1666 2139 2610 2654 2727
48 256 406 489 540 632 1237 1459 930 1195 1291 1211 1038 1223 1248 1289 724 424 0 1284 1159 1208 1389 1372 1208 1191 505 26 82 311 396 726 457 207 423 602 520 450 808 1759 1939 2008 1813
207 261 311 337 494 664 1199 1102 1033 1009 847 919 963 1058 840 1190 764 367 0 1307 1241 1338 801 1090 231 25 7 0 0 38 73 6 323 696 985 417 77 295 144 998 1288 1202 1568
76 101 176 314 639 1101 1340 1140 817 900 1029 1036 873 1224 1174 1133 1231 467 11 481 519 452 213 35 4 42 27 0 0 1 23 33 1 242 744 1013 1235 1617 1565 1132 1589 1427 1502
59 88 217 561 356 391 1165 958 708 1092 949 959 537 466 294 1146 692 516 53 0 17 97 47 50 73 55 0 0 0 0 0 0 2 9 101 628 1031 1427 1421 1732 1696 1648 1661
21 43 80 160 265 650 870 680 975 883 774 200 66 190 420 426 1216 421 0 14 0 1 108 58 11 0 0 0 11 0 0 0 6 12 8 142 778 918 1523 1580 1568 1751 1858
16 16 22 255 196 473 419 669 865 313 333 52 59 64 10 101 179 529 154 12 46 23 101 103 0 0 0 0 15 36 10 5 13 2 8 188 573 1060 1199 1541 1577 1521 1379
15 19 25 32 101 386 692 521 346 682 507 183 63 7 2 4 15 1 0 0 4 0 0 0 4 304 215 203 52 8 16 5 14 9 12 199 701 1000 1117 1372 1362 1284 949
17 20 13 9 65 230 342 385 241 4 0 0 0 1 1 0 1 1 1 1 0 0 0 17 244 354 240 220 23 51 13 13 15 14 79 399 655 620 915 961 844 663 571
28 2 13 29 182 187 504 297 917 760 14 1 0 0 2 1 1 2 1 1 1 0 0 41 355 522 422 291 49 77 28 59 16 9 1 30 147 386 360 479 526 310 675
14 4 108 45 77 58 81 513 732 763 123 31 11 0 0 0 1 1 1 1 42 15 52 324 254 467 476 304 147 31 58 60 33 13 19 15 50 172 314 390 598 709 843
9 73 21 33 52 22 20 63 26 84 6 47 28 2 0 0 1 0 0 207 199 52 303 86 171 546 461 294 235 182 65 69 15 3 0 15 11 5 2 103 160 165 238
7 5 4 3 4 4 3 7 8 23 9 22 14 10 2 5 4 7 6 8 41 4 41 448 357 680 592 292 56 171 153 108 55 40 40 63 9 10 20 11 5 4 4
11 9 3 4 9 5 5 7 11 2 11 17 25 7 0 10 7 12 10 9 3 0 77 64 81 10 21 21 0 0 5 4 36 73 60 39 6 0 0 1 6 3 1
6 2 1 4 6 8 8 11 9 6 13 14 13 9 0 8 11 13 7 8 9 10 9 5 2 1 0 0 0 0 0 0 0 0 56 70 62 2 2 0 0 0 0
0 2 5 13 9 1 5 5 4 8 10 10 9 4 5 8 7 4 5 14 9 5 9 5 3 1 1 0 0 0 0 0 0 0 0 13 90 72 54 30 4 0 0
0 0 0 0 0 0 0 0 0 0 6 7 6 2 1 1 1 0 2 2 2 5 5 6 4 2 1 0 0 0 0 0 0 0 0 13 71 23 21 17 63 14 6
0 0 0 0 0 0 0 0 0 0 0 1 2 4 0 0 0 0 0 0 0 5 1 1 0 0 0 0 0 0 0 0 0 0 0 44 32 49 62 66 112 64 77
0 0 0 0 0 0 0 0 0 0 0 0 0 0 0 0 0 0 0 0 0 0 0 0 0 1 0 0 0 0 0 0 0 0 0 200 182 39 36 23 99 46 67